GW3182 Weather Reports


Display with metric or nautical units.
time (UTC)temp
F
wind
direction
speed
MPH
gust
MPH
rain 1hr
in
rain 24hr
in
rain mn
in
humidity
%
barometer
mb
20260509150359 46 140 5.0 7.0 0.00 0.27 0.27 99 1009.2
20260509145856 46 132 7.0 9.0 0.03 0.27 0.27 99 1009.2
20260509145355 46 158 4.0 5.0 0.03 0.27 0.27 99 1009.2
20260509144852 46 170 5.0 5.0 0.03 0.27 0.27 99 1009.2
20260509144349 46 198 5.0 6.0 0.03 0.27 0.27 99 1009.2
20260509143846 46 160 9.0 10.0 0.03 0.27 0.27 99 1009.2
20260509143344 46 158 6.0 8.0 0.03 0.27 0.27 99 1009.5
20260509142840 46 161 5.0 6.0 0.03 0.27 0.27 99 1009.5
20260509142336 46 171 4.0 5.0 0.02 0.26 0.26 99 1009.5
20260509141832 46 154 4.0 5.0 0.02 0.26 0.26 99 1009.5
20260509141329 46 98 1.0 2.0 0.02 0.26 0.26 99 1009.5
20260509140825 46 171 5.0 6.0 0.01 0.25 0.25 99 1009.5
20260509140323 46 182 4.0 6.0 0.01 0.25 0.25 99 1009.5
20260509135821 46 189 6.0 7.0 0.05 0.24 0.24 99 1009.9
20260509135318 45 163 2.0 2.0 0.04 0.23 0.23 99 1009.9
20260509134815 45 176 3.0 3.0 0.04 0.23 0.23 99 1009.9
20260509134312 45 179 2.0 2.0 0.03 0.22 0.22 99 1009.5
20260509133809 45 193 0.0 0.0 0.03 0.22 0.22 99 1009.9
20260509133305 45 187 3.0 5.0 0.03 0.22 0.22 99 1009.5
20260509132804 45 198 3.0 3.0 0.02 0.21 0.21 99 1009.9
20260509132306 45 192 4.0 5.0 0.02 0.21 0.21 99 1009.9
20260509131759 45 188 4.0 5.0 0.02 0.21 0.21 99 1009.9
20260509131255 45 206 5.0 6.0 0.01 0.20 0.20 99 1009.9
20260509130752 45 153 3.0 3.0 0.01 0.20 0.20 99 1009.9
20260509130248 45 212 3.0 3.0 0.00 0.19 0.19 99 1009.9
20260509125744 45 162 4.0 5.0 0.05 0.19 0.19 99 1009.9
20260509125242 45 162 2.0 2.0 0.05 0.19 0.19 99 1009.9
20260509124738 45 199 2.0 2.0 0.05 0.19 0.19 99 1009.9
20260509124234 44 175 1.0 1.0 0.05 0.19 0.19 99 1009.9
20260509123733 45 159 5.0 7.0 0.04 0.18 0.18 99 1009.9
20260509123230 44 173 3.0 5.0 0.04 0.18 0.18 99 1009.9
20260509122725 44 198 4.0 6.0 0.03 0.17 0.17 99 1009.9
20260509122222 44 142 5.0 5.0 0.03 0.17 0.17 99 1010.2
20260509121719 44 213 1.0 2.0 0.02 0.16 0.16 99 1010.2
20260509121216 44 186 3.0 5.0 0.01 0.15 0.15 99 1009.9
20260509120715 44 193 3.0 3.0 0.01 0.15 0.15 99 1010.2
20260509120212 44 194 4.0 6.0 0.00 0.14 0.14 99 1010.2
20260509115710 44 166 0.0 1.0 0.09 0.13 0.13 99 1010.2
20260509115207 44 159 3.0 3.0 0.08 0.12 0.12 99 1010.2
20260509114705 44 204 5.0 6.0 0.08 0.12 0.12 99 1010.2
20260509114204 44 170 6.0 7.0 0.07 0.11 0.11 99 1010.2
20260509113702 44 168 4.0 5.0 0.06 0.10 0.10 99 1009.9
20260509113158 44 182 3.0 3.0 0.05 0.09 0.09 99 1010.2
20260509112655 44 177 4.0 5.0 0.04 0.08 0.08 99 1010.2
20260509112152 44 167 4.0 5.0 0.03 0.07 0.07 99 1010.2
20260509111649 44 177 3.0 3.0 0.02 0.06 0.06 99 1009.9
20260509111146 44 165 2.0 3.0 0.02 0.06 0.06 99 1009.9
20260509110643 44 183 2.0 2.0 0.01 0.05 0.05 99 1010.2
20260509110140 44 190 4.0 5.0 0.00 0.04 0.04 99 1009.9
20260509105638 44 171 7.0 7.0 0.03 0.03 0.03 98 1010.2
20260509105135 44 145 3.0 5.0 0.02 0.02 0.02 98 1009.9
20260509104632 44 206 5.0 5.0 0.01 0.01 0.01 98 1009.9
20260509104129 44 161 4.0 6.0 0.01 0.01 0.01 98 1009.9
20260509103627 44 181 1.0 1.0 0.01 0.01 0.01 98 1009.9
20260509103125 44 195 3.0 3.0 0.01 0.01 0.01 98 1009.9
20260509102622 44 156 5.0 6.0 0.01 0.01 0.01 98 1009.5
20260509102119 44 174 2.0 2.0 0.00 0.00 0.00 98 1009.9
20260509101615 43 160 4.0 5.0 0.00 0.00 0.00 98 1009.9
20260509101112 43 150 3.0 5.0 0.00 0.00 0.00 98 1009.9
20260509100609 43 174 5.0 7.0 0.00 0.00 0.00 98 1009.9
20260509100107 43 168 1.0 2.0 0.00 0.00 0.00 98 1009.5
20260509095602 43 155 4.0 5.0 0.00 0.00 0.00 98 1009.9
20260509095100 43 203 7.0 9.0 0.00 0.00 0.00 97 1009.9
20260509094556 43 155 6.0 7.0 0.00 0.00 0.00 97 1009.9
20260509094054 43 130 3.0 3.0 0.00 0.00 0.00 97 1009.9
20260509093552 43 156 5.0 6.0 0.00 0.00 0.00 97 1009.5
20260509093049 43 150 5.0 5.0 0.00 0.00 0.00 97 1009.9
20260509092547 43 167 5.0 7.0 0.00 0.00 0.00 97 1009.9
20260509092046 43 173 3.0 3.0 0.00 0.00 0.00 96 1009.9
20260509091543 43 114 2.0 3.0 0.00 0.00 0.00 96 1009.9
20260509091039 43 176 3.0 3.0 0.00 0.00 0.00 96 1009.9
20260509090536 42 157 6.0 8.0 0.00 0.00 0.00 96 1009.9
20260509090034 42 160 3.0 3.0 0.00 0.00 0.00 95 1009.9
20260509085531 42 196 5.0 6.0 0.00 0.00 0.00 94 1009.9
20260509085027 42 172 3.0 3.0 0.00 0.00 0.00 94 1009.9
20260509084524 42 165 5.0 6.0 0.00 0.00 0.00 93 1009.9
20260509084021 42 168 6.0 6.0 0.00 0.00 0.00 92 1010.2
20260509083519 42 139 6.0 7.0 0.00 0.00 0.00 91 1009.9
20260509083015 42 153 5.0 6.0 0.00 0.00 0.00 90 1009.9
20260509082513 42 230 0.0 0.0 0.00 0.00 0.00 89 1009.9
20260509082010 42 146 4.0 5.0 0.00 0.00 0.00 88 1009.9
20260509081507 42 156 3.0 3.0 0.00 0.00 0.00 88 1009.9
20260509081004 42 170 2.0 2.0 0.00 0.00 0.00 87 1010.2
20260509080502 42 172 1.0 1.0 0.00 0.00 0.00 87 1010.2
20260509075959 43 165 3.0 2.0 0.00 0.00 0.00 87 1010.2
20260509075456 43 173 2.0 3.0 0.00 0.00 0.00 86 1010.2
20260509074954 43 189 2.0 2.0 0.00 0.00 0.00 86 1010.2
20260509074451 43 177 4.0 5.0 0.00 0.00 0.00 86 1010.6
20260509073948 43 187 2.0 2.0 0.00 0.00 0.00 86 1010.2
20260509073444 43 174 3.0 3.0 0.00 0.00 0.00 85 1010.2
20260509072940 43 181 3.0 3.0 0.00 0.00 0.00 84 1010.2
20260509072438 43 158 2.0 2.0 0.00 0.00 0.00 83 1010.6
20260509071934 43 188 3.0 3.0 0.00 0.00 0.00 82 1010.6
20260509071431 43 179 3.0 3.0 0.00 0.00 0.00 81 1010.6
20260509070929 43 176 2.0 2.0 0.00 0.00 0.00 81 1010.6
20260509070425 43 159 1.0 1.0 0.00 0.00 0.00 81 1010.2
20260509065921 43 166 2.0 2.0 0.00 0.00 0.00 81 1010.2
20260509065417 43 168 3.0 3.0 0.00 0.00 0.00 80 1010.6
20260509064913 43 167 3.0 5.0 0.00 0.00 0.00 79 1010.2
20260509064411 43 178 4.0 3.0 0.00 0.00 0.00 79 1010.6
20260509063909 43 183 3.0 3.0 0.00 0.00 0.00 80 1010.6
20260509063404 43 178 3.0 3.0 0.00 0.00 0.00 80 1010.6
20260509062902 43 177 3.0 5.0 0.00 0.00 0.00 79 1010.6
20260509062358 43 157 2.0 2.0 0.00 0.00 0.00 78 1010.6
20260509061856 43 171 2.0 3.0 0.00 0.00 0.00 75 1011.0
20260509061349 44 160 5.0 7.0 0.00 0.00 0.00 76 1011.0
20260509060845 44 179 5.0 5.0 0.00 0.00 0.00 75 1011.0
20260509060342 44 147 2.0 2.0 0.00 0.00 0.00 71 1011.0
20260509055842 44 122 4.0 5.0 0.00 0.00 0.00 71 1011.3
20260509055338 44 125 2.0 2.0 0.00 0.00 0.00 70 1011.0
20260509054836 43 139 2.0 3.0 0.00 0.00 0.00 69 1011.0
20260509054332 44 140 5.0 6.0 0.00 0.00 0.00 67 1011.0
20260509053831 44 155 4.0 5.0 0.00 0.00 0.00 66 1011.3
20260509053327 44 150 5.0 6.0 0.00 0.00 0.00 66 1011.3
20260509052826 44 140 3.0 3.0 0.00 0.00 0.00 66 1011.3
20260509052323 44 123 3.0 3.0 0.00 0.00 0.00 66 1011.0
20260509051821 44 108 3.0 3.0 0.00 0.00 0.00 65 1011.3
20260509051319 44 108 3.0 3.0 0.00 0.00 0.00 64 1011.3
20260509050815 44 107 3.0 3.0 0.00 0.00 0.00 64 1011.3
20260509050311 44 127 2.0 2.0 0.00 0.00 0.00 62 1011.3
20260509045809 44 113 3.0 3.0 0.00 0.00 0.00 61 1011.0
20260509045306 44 116 3.0 3.0 0.00 0.00 0.00 60 1011.3
20260509044803 44 99 3.0 3.0 0.00 0.00 0.00 59 1011.3
20260509044300 44 110 5.0 6.0 0.00 0.00 0.00 58 1011.3
20260509043756 44 78 3.0 5.0 0.00 0.00 0.00 57 1011.3
20260509043252 44 117 4.0 6.0 0.00 0.00 0.00 57 1011.3
20260509042749 44 95 5.0 5.0 0.00 0.00 0.00 56 1011.3
20260509042245 44 110 5.0 5.0 0.00 0.00 0.00 56 1011.3
20260509041742 44 102 6.0 6.0 0.00 0.00 0.00 55 1011.7
20260509041239 44 113 4.0 5.0 0.00 0.00 0.00 56 1011.7
20260509040737 44 98 3.0 3.0 0.00 0.00 0.00 56 1011.7
20260509040234 44 112 5.0 5.0 0.00 0.00 0.00 57 1011.7
20260509035731 44 108 3.0 3.0 0.00 0.12 0.12 57 1011.7
20260509035228 44 127 4.0 5.0 0.00 0.12 0.12 57 1011.7
20260509034725 44 102 4.0 3.0 0.00 0.12 0.12 57 1011.7
20260509034223 44 87 3.0 3.0 0.00 0.12 0.12 57 1011.7
20260509033719 44 103 4.0 5.0 0.00 0.12 0.12 57 1011.7
20260509033216 44 89 4.0 5.0 0.00 0.12 0.12 57 1011.7
20260509032713 44 92 4.0 3.0 0.00 0.12 0.12 57 1011.3
20260509032210 44 97 3.0 5.0 0.00 0.12 0.12 57 1011.7
20260509031708 44 96 3.0 3.0 0.00 0.12 0.12 56 1011.7
20260509031205 44 107 4.0 5.0 0.00 0.12 0.12 56 1011.7
20260509030703 44 78 3.0 3.0 0.00 0.12 0.12 56 1011.7
20260509030200 44 98 2.0 2.0 0.00 0.12 0.12 56 1011.7
20260509025651 44 83 3.0 3.0 0.00 0.12 0.12 56 1011.7
20260509025147 44 96 3.0 2.0 0.00 0.12 0.12 56 1011.7
20260509024642 45 82 2.0 3.0 0.00 0.12 0.12 55 1012.0
20260509024139 45 90 4.0 5.0 0.00 0.12 0.12 55 1012.0
20260509023637 45 93 3.0 3.0 0.00 0.12 0.12 55 1012.0
20260509023133 45 104 2.0 2.0 0.00 0.12 0.12 55 1011.7
20260509022629 45 97 4.0 5.0 0.00 0.12 0.12 55 1012.0
20260509022128 45 95 3.0 3.0 0.00 0.12 0.12 56 1011.7
20260509021624 45 89 3.0 2.0 0.00 0.12 0.12 55 1012.0
20260509021121 45 87 3.0 3.0 0.00 0.12 0.12 55 1012.0
20260509020619 45 98 2.0 2.0 0.00 0.12 0.12 55 1012.0
20260509020116 46 95 2.0 2.0 0.00 0.12 0.12 55 1011.7
20260509015615 46 92 1.0 1.0 0.00 0.12 0.12 55 1012.0
20260509015112 46 101 2.0 2.0 0.00 0.12 0.12 55 1011.7
20260509014608 46 100 0.0 1.0 0.00 0.12 0.12 55 1012.0
20260509014104 46 116 3.0 3.0 0.00 0.12 0.12 55 1011.7
20260509013601 46 104 2.0 2.0 0.00 0.12 0.12 55 1012.0
20260509013057 46 91 0.0 1.0 0.00 0.12 0.12 55 1011.7
20260509012554 46 95 2.0 2.0 0.00 0.12 0.12 54 1011.7
20260509012051 46 90 3.0 2.0 0.00 0.12 0.12 54 1011.7
20260509011549 46 96 0.0 0.0 0.00 0.12 0.12 54 1011.3
20260509011045 46 94 3.0 3.0 0.00 0.12 0.12 54 1011.7
20260509010543 46 100 2.0 2.0 0.00 0.12 0.12 54 1011.7
20260509010040 46 93 0.0 0.0 0.00 0.12 0.12 54 1011.3
20260509005538 46 92 0.0 0.0 0.00 0.12 0.12 55 1011.3
20260509005038 46 91 0.0 0.0 0.00 0.12 0.12 57 1011.3
20260509004536 46 93 0.0 0.0 0.00 0.12 0.12 54 1011.0
20260509004032 46 93 0.0 1.0 0.00 0.12 0.12 54 1011.0
20260509003531 46 93 0.0 0.0 0.00 0.12 0.12 54 1011.0
20260509003028 46 92 0.0 0.0 0.00 0.12 0.12 54 1011.3
20260509002525 46 93 0.0 1.0 0.00 0.12 0.12 54 1011.0
20260509002022 46 92 0.0 0.0 0.00 0.12 0.12 54 1011.0
20260509001520 46 95 0.0 0.0 0.00 0.12 0.12 54 1011.0
20260509001015 47 94 1.0 1.0 0.00 0.12 0.12 54 1011.0
20260509000514 47 72 0.0 0.0 0.00 0.12 0.12 54 1010.6
20260509000009 48 71 0.0 0.0 0.00 0.12 0.12 55 1011.0
20260508235508 49 71 0.0 0.0 0.00 0.12 0.12 55 1010.6
20260508235003 49 69 1.0 1.0 0.00 0.12 0.12 54 1010.6
20260508234501 49 62 0.0 0.0 0.00 0.12 0.12 51 1010.6
20260508233958 49 57 0.0 0.0 0.00 0.12 0.12 52 1010.6
20260508233457 51 97 0.0 0.0 0.00 0.12 0.12 48 1010.6
20260508232953 51 345 0.0 0.0 0.00 0.12 0.12 50 1010.6
20260508232450 51 301 0.0 0.0 0.00 0.12 0.12 48 1010.6
20260508231947 52 311 2.0 2.0 0.00 0.12 0.12 45 1010.6
20260508231445 51 308 0.0 0.0 0.00 0.12 0.12 49 1010.6
20260508230941 52 291 2.0 2.0 0.00 0.12 0.12 45 1010.2
20260508230438 51 289 0.0 0.0 0.00 0.12 0.12 45 1010.6
20260508225935 51 300 0.0 0.0 0.00 0.12 0.12 47 1010.2
20260508225433 51 283 3.0 3.0 0.00 0.12 0.12 46 1010.6
20260508224930 51 258 0.0 0.0 0.00 0.12 0.12 47 1010.6
20260508224428 51 339 2.0 2.0 0.00 0.12 0.12 46 1010.6
20260508223924 52 339 2.0 2.0 0.00 0.12 0.12 46 1010.6
20260508223423 52 260 1.0 1.0 0.00 0.12 0.12 44 1010.6
20260508222919 52 263 2.0 2.0 0.00 0.12 0.12 46 1010.6
20260508222416 51 252 2.0 2.0 0.00 0.12 0.12 46 1010.6
20260508221913 51 343 2.0 2.0 0.00 0.12 0.12 48 1010.6
20260508221408 51 303 2.0 3.0 0.00 0.12 0.12 46 1010.6
20260508220905 51 343 5.0 6.0 0.00 0.12 0.12 45 1010.6
20260508220401 51 333 3.0 6.0 0.00 0.12 0.12 46 1010.6
20260508215858 51 307 1.0 2.0 0.00 0.12 0.12 48 1010.6
20260508215355 52 235 1.0 1.0 0.00 0.12 0.12 46 1010.6
20260508214851 52 234 1.0 1.0 0.00 0.12 0.12 48 1010.6
20260508214349 51 272 1.0 2.0 0.00 0.12 0.12 46 1010.6
20260508213845 51 211 0.0 0.0 0.00 0.12 0.12 47 1010.6
20260508213342 51 314 4.0 6.0 0.00 0.12 0.12 47 1010.6
20260508212838 50 337 4.0 5.0 0.00 0.12 0.12 48 1010.6
20260508212335 50 227 3.0 3.0 0.00 0.12 0.12 47 1010.6
20260508211825 50 267 1.0 1.0 0.00 0.12 0.12 49 1010.6
20260508211321 50 328 7.0 10.0 0.00 0.12 0.12 47 1010.6
20260508210819 51 322 4.0 6.0 0.00 0.12 0.12 48 1010.6
20260508210316 50 311 2.0 5.0 0.00 0.12 0.12 51 1011.0
20260508205813 50 318 5.0 7.0 0.00 0.12 0.12 48 1010.6
20260508205308 51 335 3.0 5.0 0.00 0.12 0.12 47 1011.0
20260508204805 51 301 7.0 7.0 0.00 0.12 0.12 48 1010.6
20260508204302 50 319 4.0 3.0 0.00 0.12 0.12 48 1011.0
20260508203758 50 321 1.0 2.0 0.00 0.12 0.12 50 1011.0
20260508203254 50 321 2.0 2.0 0.00 0.12 0.12 50 1011.0
20260508202750 49 4 4.0 5.0 0.00 0.12 0.12 51 1011.0
20260508202248 50 315 3.0 3.0 0.00 0.12 0.12 50 1011.0
20260508201745 50 312 6.0 7.0 0.00 0.12 0.12 50 1011.0
20260508201241 50 335 4.0 5.0 0.00 0.12 0.12 51 1011.0
20260508200738 50 296 2.0 3.0 0.00 0.12 0.12 51 1011.3
20260508200234 50 295 2.0 2.0 0.00 0.12 0.12 50 1011.3
20260508195730 50 323 3.0 5.0 0.00 0.12 0.12 50 1011.3
20260508195227 49 318 4.0 5.0 0.00 0.12 0.12 55 1011.3
20260508194724 50 319 3.0 5.0 0.00 0.12 0.12 52 1011.3
20260508194221 50 306 2.0 2.0 0.00 0.12 0.12 55 1011.3
20260508193718 50 204 5.0 8.0 0.00 0.12 0.12 51 1011.3
20260508193214 50 259 2.0 2.0 0.00 0.12 0.12 51 1011.3
20260508192711 49 266 1.0 2.0 0.00 0.12 0.12 56 1011.3
20260508192208 48 318 7.0 8.0 0.00 0.12 0.12 54 1011.7
20260508191705 48 334 6.0 7.0 0.00 0.12 0.12 53 1011.3
20260508191201 47 259 6.0 8.0 0.00 0.12 0.12 54 1011.7
20260508190659 47 295 5.0 7.0 0.00 0.12 0.12 59 1011.7
20260508190155 46 326 5.0 8.0 0.00 0.12 0.12 62 1011.7
20260508185652 47 323 5.0 6.0 0.00 0.12 0.12 60 1011.3
20260508185149 47 330 3.0 5.0 0.00 0.12 0.12 60 1011.7
20260508184646 47 319 3.0 3.0 0.00 0.12 0.12 66 1011.7
20260508184143 46 323 3.0 3.0 0.00 0.12 0.12 66 1012.0
20260508183640 44 294 2.0 2.0 0.00 0.12 0.12 68 1012.0
20260508183136 45 329 3.0 7.0 0.00 0.12 0.12 66 1012.0
20260508182633 46 330 2.0 5.0 0.00 0.12 0.12 65 1012.0
20260508182130 47 290 5.0 6.0 0.00 0.12 0.12 63 1012.4
20260508181625 47 318 3.0 5.0 0.00 0.12 0.12 62 1012.0
20260508181123 46 260 3.0 3.0 0.00 0.12 0.12 65 1012.0
20260508180619 45 325 2.0 2.0 0.00 0.12 0.12 68 1012.4
20260508180116 44 286 3.0 2.0 0.00 0.12 0.12 71 1012.0
20260508175612 45 280 2.0 3.0 0.00 0.12 0.12 72 1012.4
20260508175109 44 322 6.0 8.0 0.00 0.12 0.12 73 1012.4
20260508174606 44 274 5.0 6.0 0.00 0.12 0.12 70 1012.0
20260508174103 43 328 2.0 2.0 0.00 0.12 0.12 74 1012.4
20260508173600 42 328 3.0 5.0 0.00 0.12 0.12 74 1012.0
20260508173056 43 303 4.0 5.0 0.00 0.12 0.12 71 1012.4
20260508172554 43 244 1.0 1.0 0.00 0.12 0.12 76 1012.4
20260508172050 42 319 4.0 5.0 0.00 0.12 0.12 79 1012.4
20260508171546 43 219 2.0 3.0 0.00 0.12 0.12 74 1012.4
20260508171043 42 240 3.0 3.0 0.00 0.12 0.12 81 1012.4
20260508170541 41 212 0.0 0.0 0.00 0.12 0.12 85 1012.4
20260508170038 41 201 0.0 1.0 0.00 0.12 0.12 84 1012.8
20260508165535 41 326 4.0 6.0 0.00 0.12 0.12 85 1012.8
20260508165032 42 317 3.0 3.0 0.00 0.12 0.12 82 1012.4
20260508164528 43 308 1.0 2.0 0.00 0.12 0.12 85 1012.4
20260508164025 42 265 0.0 0.0 0.00 0.12 0.12 87 1012.4
20260508163522 41 317 1.0 1.0 0.00 0.12 0.12 84 1012.4
20260508163019 40 315 2.0 2.0 0.00 0.12 0.12 89 1012.0
20260508162516 40 267 0.0 1.0 0.00 0.12 0.12 90 1012.0
20260508162013 40 227 0.0 0.0 0.00 0.12 0.12 91 1012.4
20260508161510 41 221 3.0 5.0 0.00 0.12 0.12 96 1012.4
20260508161007 40 266 1.0 1.0 0.00 0.12 0.12 98 1012.8
20260508160506 38 316 3.0 3.0 0.00 0.12 0.12 98 1012.4
20260508160002 38 11 2.0 3.0 0.00 0.12 0.12 98 1012.8
20260508155459 38 259 2.0 2.0 0.00 0.12 0.12 98 1012.8
20260508154955 37 311 1.0 1.0 0.00 0.12 0.12 98 1012.4
20260508154453 36 306 2.0 1.0 0.00 0.12 0.12 98 1012.8
20260508153949 36 260 0.0 1.0 0.00 0.12 0.12 98 1012.4
20260508153446 35 299 1.0 1.0 0.00 0.12 0.12 98 1012.4
20260508152943 35 306 2.0 2.0 0.00 0.12 0.12 98 1012.8
20260508152439 35 317 3.0 3.0 0.00 0.12 0.12 98 1012.8
20260508151936 35 316 3.0 2.0 0.00 0.12 0.12 98 1012.4
20260508151433 35 316 3.0 3.0 0.00 0.12 0.12 98 1012.4
20260508150929 35 297 1.0 2.0 0.00 0.12 0.12 98 1012.4